TimePST,TemperatureF,Dew PointF,Humidity,Sea Level PressureIn,VisibilityMPH,Wind Direction,Wind SpeedMPH,Gust SpeedMPH,PrecipitationIn,Events,Conditions,WindDirDegrees,DateUTC
12:54 AM,55.9,48.0,75,29.98,10.0,West,13.8,-,N/A,,Mostly Cloudy,260,2012-11-08 08:54:00
1:39 AM,55.4,46.4,72,29.94,10.0,West,9.2,-,N/A,,Scattered Clouds,270,2012-11-08 09:39:00
1:54 AM,55.9,46.0,69,29.97,10.0,West,12.7,-,N/A,,Scattered Clouds,270,2012-11-08 09:54:00
2:29 AM,55.4,44.6,67,29.94,10.0,West,16.1,24.2,N/A,,Overcast,280,2012-11-08 10:29:00
2:40 AM,55.4,44.6,67,29.94,10.0,West,16.1,23.0,N/A,,Mostly Cloudy,270,2012-11-08 10:40:00
2:54 AM,55.0,45.0,69,29.96,10.0,West,15.0,23.0,N/A,,Overcast,270,2012-11-08 10:54:00
3:54 AM,55.0,42.1,62,29.96,10.0,West,16.1,24.2,N/A,,Scattered Clouds,270,2012-11-08 11:54:00
4:54 AM,55.0,39.0,55,29.98,10.0,WNW,19.6,29.9,N/A,,Overcast,300,2012-11-08 12:54:00
5:54 AM,54.0,37.9,55,29.99,10.0,West,17.3,21.9,N/A,,Clear,280,2012-11-08 13:54:00
6:54 AM,55.0,39.9,57,29.99,10.0,WNW,11.5,-,N/A,,Overcast,290,2012-11-08 14:54:00
7:54 AM,55.9,42.1,60,30.00,10.0,West,6.9,-,N/A,,Partly Cloudy,280,2012-11-08 15:54:00
8:54 AM,57.9,43.0,58,30.00,10.0,West,8.1,-,N/A,,Partly Cloudy,280,2012-11-08 16:54:00
9:54 AM,60.1,41.0,49,30.01,10.0,West,10.4,-,N/A,,Scattered Clouds,270,2012-11-08 17:54:00
10:54 AM,59.0,43.0,55,30.00,10.0,WSW,9.2,-,N/A,,Scattered Clouds,240,2012-11-08 18:54:00
11:54 AM,60.1,42.1,51,29.98,10.0,SW,9.2,-,N/A,,Mostly Cloudy,230,2012-11-08 19:54:00
12:54 PM,57.0,46.9,69,29.96,10.0,WSW,12.7,19.6,0.00,Rain,Light Rain,250,2012-11-08 20:54:00
1:39 PM,53.6,48.2,82,29.92,1.8,SW,13.8,20.7,0.04,Rain,Rain,220,2012-11-08 21:39:00
1:50 PM,53.6,50.0,88,29.92,3.0,SW,11.5,-,0.05,Rain,Light Rain,230,2012-11-08 21:50:00
1:54 PM,55.0,50.0,83,29.95,6.0,WSW,10.4,-,0.05,,Overcast,240,2012-11-08 21:54:00
2:54 PM,55.9,46.9,72,29.94,10.0,WNW,11.5,-,N/A,,Overcast,290,2012-11-08 22:54:00
3:54 PM,55.0,44.1,67,29.94,10.0,WNW,10.4,-,N/A,,Overcast,290,2012-11-08 23:54:00
4:54 PM,54.0,44.1,69,29.93,10.0,WNW,9.2,-,N/A,,Mostly Cloudy,290,2012-11-09 00:54:00
5:54 PM,54.0,43.0,66,29.93,10.0,West,8.1,-,N/A,,Mostly Cloudy,270,2012-11-09 01:54:00
6:54 PM,54.0,43.0,66,29.94,10.0,WNW,9.2,-,N/A,,Mostly Cloudy,290,2012-11-09 02:54:00
7:54 PM,52.0,39.9,63,29.94,10.0,WNW,9.2,-,N/A,,Clear,300,2012-11-09 03:54:00
8:54 PM,53.1,41.0,64,29.94,10.0,West,5.8,-,N/A,,Scattered Clouds,260,2012-11-09 04:54:00
9:54 PM,52.0,42.1,69,29.95,10.0,West,8.1,-,N/A,,Partly Cloudy,270,2012-11-09 05:54:00
10:54 PM,51.1,41.0,68,29.95,10.0,West,4.6,-,N/A,,Clear,280,2012-11-09 06:54:00
11:54 PM,48.0,42.1,80,29.95,10.0,East,4.6,-,N/A,,Clear,100,2012-11-09 07:54:00